GFSMW_925_temp_042.txt.gz
Temp
27 25 25 25 24 19 17 16 15 14 13 13 13 13 13 13 13 13 13 13 13 13 13 13 13 12 12 12 12 11 11 10 10 10 10 10 10 10 11 10 10 10 10
26 24 24 24 22 19 18 16 15 14 14 15 15 14 14 13 14 13 14 14 14 13 13 12 12 12 12 11 11 11 10 10 10 9 9 7 9 10 9 9 9 8 8
25 24 24 23 23 19 18 16 15 15 15 17 16 15 15 15 15 14 14 14 13 13 13 12 12 11 11 11 11 10 10 9 9 9 9 7 6 7 8 8 8 8 7
26 25 24 23 22 19 18 17 17 17 17 17 17 17 17 16 16 15 14 13 13 13 13 12 12 11 11 10 10 10 10 9 9 9 9 8 7 5 5 7 7 7 7
26 25 24 22 21 19 18 18 18 19 18 18 18 17 18 17 16 16 15 14 13 13 13 12 12 11 10 10 9 9 9 9 8 8 7 6 6 5 5 4 5 6 6
26 26 22 21 20 19 19 20 19 19 18 18 18 18 17 17 16 16 15 14 14 13 13 12 11 10 9 9 9 8 8 8 8 7 6 5 5 5 5 3 4 4 5
25 25 23 22 21 20 20 20 20 19 18 18 17 17 16 15 15 15 14 14 13 13 11 10 9 9 9 8 8 8 8 8 8 7 5 5 4 5 4 4 4 3 3
24 24 23 22 21 20 20 20 20 19 18 17 17 16 15 14 14 14 13 12 12 11 10 9 9 8 8 7 7 7 7 7 7 5 5 4 4 3 4 4 3 1 2
24 23 23 22 21 20 19 19 19 18 17 17 16 14 14 13 13 12 12 11 10 10 9 8 8 7 7 7 6 6 6 6 5 4 4 4 4 4 3 3 3 2 1
24 23 23 22 21 19 19 19 19 17 17 16 14 13 13 12 12 11 11 10 10 9 8 8 7 7 6 6 5 5 4 4 4 3 3 3 3 3 3 3 3 3 3
24 23 23 22 21 20 19 18 18 17 16 15 13 13 12 12 11 11 10 10 9 8 7 7 7 6 6 5 4 4 4 3 3 3 3 3 3 3 3 3 2 2 2
24 24 23 22 21 20 19 18 18 16 15 14 12 12 11 11 11 11 10 9 8 7 7 6 6 6 5 4 3 3 3 2 2 3 3 3 2 2 2 1 0 -1 -1
25 24 23 22 21 20 18 17 17 15 14 13 11 11 11 12 11 11 10 9 8 7 6 6 6 5 4 3 3 3 3 3 3 3 2 2 1 1 0 -1 -2 -2 -2
25 25 23 22 20 19 18 17 15 15 13 12 12 12 12 12 11 10 9 8 7 6 6 5 5 5 4 3 3 3 2 2 2 2 2 1 1 0 -1 -2 -3 -3 -3
25 25 23 21 20 19 18 16 15 13 12 12 13 13 12 11 10 9 8 7 6 6 5 5 5 4 3 3 3 2 1 1 1 1 1 1 0 -0 -1 -2 -3 -4 -4
25 24 23 22 20 19 17 16 14 13 12 13 12 11 10 10 9 8 7 6 6 6 6 5 5 4 3 2 1 1 1 -0 -0 0 0 -0 -0 -1 -1 -3 -4 -4 -4
23 23 22 21 20 19 17 15 14 13 12 11 11 10 9 8 8 7 7 6 6 5 5 4 4 3 3 2 1 0 -0 -1 -1 -0 -0 -1 -1 -1 -2 -3 -4 -5 -5
22 22 21 21 20 18 16 15 13 12 11 10 10 9 9 8 7 7 7 6 6 5 4 4 3 2 2 2 0 -1 -1 -2 -1 -1 -1 -1 -1 -2 -3 -4 -5 -6 -6
22 21 21 20 18 17 15 13 12 11 10 9 8 8 8 7 6 6 6 6 5 5 4 4 3 2 2 -0 -1 -1 -2 -2 -2 -2 -2 -2 -2 -3 -4 -5 -7 -7 -7
21 20 19 18 16 14 13 12 11 10 9 8 7 6 6 6 6 5 5 5 4 4 4 3 2 1 0 -1 -1 -2 -3 -3 -3 -3 -3 -3 -3 -4 -6 -7 -8 -8 -8
19 18 16 15 13 12 11 9 7 7 6 6 6 6 6 5 5 5 4 4 3 3 3 2 1 0 -0 -1 -2 -2 -2 -3 -4 -4 -4 -3 -5 -5 -5 -7 -8 -8 -7
15 14 12 9 7 7 6 6 5 6 6 5 4 4 4 4 4 4 4 3 3 3 3 2 1 -0 -1 -1 -1 -2 -2 -3 -4 -5 -5 -4 -5 -5 -7 -6 -6 -6 -7
14 12 8 6 5 4 4 4 4 5 5 3 2 2 3 4 4 4 3 3 3 2 2 1 0 -0 -1 -1 -1 -3 -3 -3 -4 -4 -5 -5 -5 -6 -6 -5 -5 -6 -6
7 5 4 4 3 4 5 5 5 5 2 2 3 3 4 4 3 3 3 3 3 2 1 0 -0 -1 -1 -1 -1 -2 -3 -4 -5 -4 -5 -5 -5 -5 -5 -5 -4 -5 -5
3 4 4 4 5 5 4 4 4 3 2 2 3 3 2 2 2 3 3 3 2 1 1 0 -0 -1 -2 -2 -2 -2 -3 -4 -4 -5 -5 -5 -5 -4 -4 -4 -4 -5 -5
4 4 4 4 4 4 4 4 3 3 3 2 2 2 2 1 1 1 1 1 1 0 0 -0 -1 -1 -2 -2 -3 -3 -3 -4 -4 -5 -6 -5 -5 -4 -5 -5 -5 -5 -5

GFSMW_925_temp_048.txt.gz
Temp
20 20 19 18 17 17 17 18 17 17 16 16 15 15 15 14 14 14 14 13 13 13 13 13 13 12 12 11 11 10 10 10 9 9 8 9 9 8 8 8 8 7 7
20 20 19 18 16 16 16 17 17 16 16 17 17 16 15 14 14 13 13 13 13 13 13 13 12 12 12 11 10 10 9 9 9 8 7 4 7 7 8 7 7 7 7
20 19 18 17 15 14 16 17 17 17 16 16 16 15 14 13 12 12 13 13 13 13 13 13 13 12 11 10 10 9 9 8 8 8 7 4 3 4 7 7 6 6 6
21 19 18 16 15 14 15 15 16 16 16 16 15 15 14 12 13 13 13 13 13 13 13 13 12 11 10 10 10 9 8 8 7 7 7 7 6 3 3 5 6 5 5
21 18 18 16 15 14 14 15 16 16 16 15 14 15 14 14 14 14 13 13 13 13 12 12 11 10 10 9 9 8 8 7 7 7 6 6 6 5 2 2 3 4 4
19 18 17 16 15 14 15 15 16 16 15 14 15 15 15 15 14 13 13 13 13 12 12 11 11 10 10 9 8 7 7 6 6 6 6 5 4 4 4 3 3 1 2
17 16 16 16 14 14 14 16 15 15 15 15 15 15 16 15 15 14 13 12 11 11 11 10 10 9 8 8 7 7 6 6 5 5 5 4 4 4 3 2 2 0 1
18 18 16 16 15 15 14 14 15 15 16 16 16 16 16 15 15 14 13 12 11 10 10 9 8 8 7 7 7 6 5 5 4 4 4 4 3 3 3 2 0 0 -1
17 17 18 16 16 15 15 15 15 16 17 16 16 16 15 15 14 13 12 11 10 9 8 8 8 7 7 7 6 5 5 4 4 3 3 3 3 3 2 2 1 0 -1
16 15 16 16 16 16 16 16 17 17 16 16 16 15 14 14 13 12 11 10 9 8 9 7 7 7 7 6 6 5 4 3 3 3 2 2 2 2 2 1 1 0 -1
16 16 15 17 18 18 17 17 17 17 16 16 15 14 13 12 11 11 10 9 8 8 7 8 7 7 6 6 5 5 4 3 2 2 2 2 2 2 1 1 1 -0 -1
17 16 16 16 16 17 17 18 17 17 16 15 14 13 12 11 10 9 8 8 8 7 7 7 7 6 6 5 5 4 4 3 2 2 2 2 1 1 1 0 -0 -1 -2
17 17 16 16 16 16 17 17 17 17 16 14 13 12 11 10 9 9 9 8 8 7 7 6 6 6 5 5 4 4 3 3 2 2 1 1 1 1 0 -0 -1 -2 -2
18 17 16 17 17 16 15 15 15 14 12 12 11 11 11 10 10 9 9 8 7 7 6 6 6 5 5 4 4 4 3 3 2 2 1 1 0 -0 -1 -1 -2 -3 -3
17 17 16 14 16 16 16 14 13 12 12 11 11 11 11 10 10 9 7 7 7 6 6 6 5 5 5 4 4 3 3 2 1 1 1 0 -0 -1 -1 -1 -2 -3 -4
17 17 15 14 14 14 13 12 11 11 11 11 11 10 9 8 8 8 7 7 6 6 6 6 5 5 5 4 3 3 2 2 1 0 -0 -0 -1 -1 -1 -2 -3 -3 -5
16 15 14 14 13 13 12 10 10 10 11 10 9 8 8 7 7 7 6 6 5 5 6 5 5 5 4 4 3 2 2 1 0 -1 -1 -1 -1 -2 -2 -3 -3 -4 -4
14 14 14 13 13 12 11 10 11 10 9 8 7 7 6 6 5 4 5 3 4 5 4 5 4 4 4 3 3 2 1 -0 -1 -1 -3 -2 -2 -2 -3 -3 -4 -4 -4
10 9 9 9 10 10 10 9 8 7 6 5 5 5 4 5 5 3 3 4 4 4 4 4 4 3 3 3 2 1 1 -0 -1 -2 -3 -2 -3 -3 -3 -4 -5 -5 -5
7 6 6 7 7 7 7 6 5 5 4 4 4 4 5 4 4 3 3 3 4 4 3 3 3 3 3 2 2 1 -0 -1 -2 -2 -3 -3 -3 -4 -4 -5 -5 -6 -6
5 5 5 4 5 5 5 4 4 4 4 5 5 5 4 3 3 3 3 3 3 3 3 3 3 3 2 2 1 0 -1 -1 -2 -2 -3 -3 -4 -4 -5 -5 -5 -6 -6
4 4 4 4 5 6 6 5 5 5 5 5 4 3 3 3 3 3 3 3 3 3 3 3 3 2 2 1 1 0 -1 -1 -2 -2 -3 -3 -4 -4 -5 -5 -5 -5 -6
3 4 5 5 5 5 6 5 4 4 4 4 3 3 3 3 3 2 2 2 2 2 2 2 2 2 1 1 0 -0 -1 -1 -2 -2 -3 -3 -4 -4 -5 -5 -5 -5 -5
4 4 4 4 4 4 4 4 4 4 3 3 3 3 2 2 2 2 2 2 2 2 1 1 1 1 0 0 -0 -0 -1 -1 -2 -3 -3 -4 -4 -5 -5 -5 -5 -5 -5
4 4 4 4 4 4 4 4 4 4 3 3 3 3 2 2 2 2 2 1 1 1 1 1 0 -0 -1 -0 -0 -1 -1 -2 -2 -3 -3 -4 -5 -5 -5 -5 -5 -5 -5
4 4 4 4 4 4 4 3 3 3 3 3 3 3 3 2 2 2 2 2 1 1 1 1 1 1 0 -0 -1 -1 -1 -2 -3 -4 -5 -6 -5 -5 -5 -6 -5 -5 -5

GFSMW_925_temp_051.txt.gz
Temp
18 17 17 17 17 17 16 17 17 17 16 15 15 14 14 14 14 14 15 14 14 14 14 13 13 13 12 12 11 10 10 9 8 8 8 8 8 8 8 8 7 7 7
18 18 17 17 17 17 16 16 16 16 16 16 15 14 15 14 14 14 13 13 13 13 13 13 13 13 12 11 10 10 9 8 8 8 6 4 6 7 7 7 7 7 6
18 18 17 16 16 16 16 17 16 16 16 16 15 14 13 13 12 13 13 13 13 13 13 13 13 12 11 11 10 9 9 8 8 7 7 4 3 4 6 6 6 6 6
19 18 17 16 15 16 16 15 16 16 15 15 15 15 14 13 13 14 13 13 13 13 13 12 12 11 11 10 9 8 8 7 7 7 7 6 6 2 2 5 5 5 5
19 18 18 17 16 15 14 15 14 15 15 15 15 14 15 15 15 14 13 13 12 12 12 12 12 11 10 9 8 8 7 7 6 5 5 5 5 4 2 0 2 3 4
19 18 19 17 16 14 14 14 14 14 15 15 14 15 15 15 14 13 12 12 12 12 11 11 10 9 9 9 8 8 7 6 6 5 5 4 4 4 3 1 2 3 2
18 17 17 16 15 13 13 13 13 13 14 15 14 14 15 15 14 13 13 11 11 11 10 9 8 8 8 8 7 7 6 5 5 4 4 4 4 3 3 2 2 2 1
17 16 16 16 15 14 13 13 13 13 13 14 14 14 15 14 14 14 13 12 11 10 9 8 7 7 7 7 7 6 5 5 4 4 3 3 3 3 3 2 1 0 -1
16 15 15 15 14 14 14 13 13 13 14 14 14 14 15 14 14 13 13 11 10 9 7 6 6 7 8 7 6 5 5 4 3 3 3 2 2 2 2 2 1 0 -3
15 15 15 15 14 14 14 14 14 15 15 15 14 14 14 14 14 12 11 10 8 7 7 7 7 7 7 6 5 5 4 4 4 3 2 2 2 2 2 2 1 1 -0
14 14 15 15 15 14 14 14 14 15 15 15 15 14 14 13 12 12 10 8 7 7 7 7 6 6 6 6 5 5 4 4 4 3 2 2 2 2 1 1 1 -0 -1
14 15 15 15 14 14 15 15 15 15 15 15 14 14 14 12 11 10 9 9 8 7 7 6 6 6 6 6 5 5 4 4 3 3 2 2 1 1 1 0 -0 -1 -1
15 15 14 14 14 14 14 14 14 14 14 13 12 11 11 10 10 9 9 8 7 7 6 6 6 6 6 5 5 5 4 3 3 3 2 2 1 1 1 0 -1 -1 -2
15 14 14 14 15 15 14 14 13 13 12 11 10 10 9 9 9 9 7 7 7 6 6 6 6 6 5 5 5 4 4 3 3 2 1 1 1 0 0 -1 -1 -2 -2
15 15 14 13 14 14 13 12 12 11 10 10 9 9 9 9 9 8 7 7 6 6 6 6 6 5 5 5 5 4 4 3 3 2 1 0 0 -0 -1 -1 -1 -2 -3
16 15 14 13 13 13 11 10 10 10 10 9 9 9 9 8 8 7 7 6 6 6 5 5 5 5 5 5 4 4 3 3 2 2 1 -0 -0 -1 -1 -1 -2 -3 -4
14 13 13 12 12 12 11 10 9 9 9 9 9 8 8 7 6 5 5 5 5 5 4 5 5 5 5 4 4 3 3 2 1 1 -0 -1 -1 -2 -2 -2 -3 -4 -4
10 9 9 9 10 10 9 8 8 9 8 6 6 6 5 5 5 6 5 5 4 3 4 4 4 4 4 4 3 3 2 2 1 0 -1 -1 -2 -2 -3 -3 -4 -4 -5
6 6 7 7 8 8 7 7 6 5 5 4 4 5 6 5 5 4 3 3 3 3 4 4 3 3 3 3 3 2 2 1 1 -0 -1 -2 -3 -3 -3 -4 -4 -5 -5
5 5 5 5 6 5 5 5 3 3 3 5 6 5 5 4 4 3 3 3 3 3 3 3 3 3 3 3 3 2 1 1 0 -1 -1 -2 -3 -3 -3 -4 -5 -6 -5
4 4 4 4 4 4 4 4 4 4 5 4 4 4 4 4 3 3 3 3 3 3 3 3 3 3 3 3 2 2 1 0 -0 -1 -1 -2 -2 -3 -4 -5 -5 -5 -5
4 5 5 4 5 6 7 5 5 4 4 4 4 4 3 3 3 3 3 3 2 2 2 2 2 2 2 2 2 1 1 0 -1 -1 -1 -2 -2 -4 -4 -5 -5 -5 -6
4 4 4 4 5 5 5 4 4 4 4 4 3 3 3 3 2 2 2 2 2 2 1 1 1 2 2 1 1 1 0 -0 -1 -1 -1 -2 -3 -4 -4 -4 -5 -5 -5
4 4 4 3 3 4 4 4 4 4 3 3 3 3 2 3 3 2 2 1 1 1 1 1 1 1 1 1 0 -0 -0 -1 -1 -1 -2 -2 -3 -4 -4 -5 -5 -5 -5
3 4 3 3 3 3 2 2 2 2 2 2 2 1 1 1 1 1 1 1 1 1 1 -0 0 -1 -0 1 1 0 -1 -1 -1 -2 -2 -3 -4 -5 -5 -5 -5 -5 -5
3 2 2 2 1 1 0 0 0 0 0 -0 -1 -1 -1 -1 -1 -1 -1 -1 -1 -1 -1 -1 -1 -1 -0 0 0 -1 -2 -1 -2 -3 -4 -5 -5 -5 -5 -6 -5 -5 -5

GFSMW_925_temp_054.txt.gz
Temp
17 16 16 16 16 16 16 16 16 16 16 15 14 14 14 14 14 14 14 15 15 14 14 14 13 12 12 12 11 10 10 8 8 8 8 7 7 7 7 7 7 7 7
16 16 16 16 16 16 16 16 16 16 16 16 15 15 14 14 13 13 13 14 14 14 13 13 13 13 12 11 11 10 9 8 7 7 6 4 6 7 7 7 7 6 6
16 16 16 16 16 17 16 16 16 16 16 16 15 14 13 13 12 13 13 13 13 13 13 13 13 12 11 11 10 9 9 8 7 7 7 3 3 3 6 6 6 6 5
17 16 16 16 16 16 16 16 16 16 16 15 15 14 14 13 13 14 14 13 13 13 12 12 12 11 11 10 9 8 8 7 7 6 6 6 5 2 2 5 5 5 4
17 17 17 17 16 15 15 16 16 16 15 15 14 14 14 13 14 13 13 13 12 12 12 11 11 10 9 9 8 8 7 7 6 6 5 5 5 4 2 2 2 4 3
17 17 18 17 16 16 15 15 15 15 14 14 14 14 13 13 13 13 12 12 11 11 11 11 10 9 9 8 7 7 7 6 6 5 5 4 4 3 2 -0 1 3 2
16 16 15 15 15 15 14 15 14 13 14 14 13 13 13 13 13 13 12 11 11 11 11 10 9 9 8 7 6 7 7 6 5 4 4 4 3 3 2 2 2 0 1
17 17 16 16 14 14 14 14 13 13 13 12 13 13 12 13 13 13 13 12 12 11 10 8 8 7 7 6 7 7 6 5 5 5 4 3 3 3 2 2 1 1 1
15 16 16 16 14 14 13 14 13 13 13 13 14 12 13 13 13 13 13 13 11 10 8 8 7 6 6 6 6 6 6 5 4 4 3 3 2 2 2 2 2 0 -1
14 14 14 15 15 14 14 13 13 13 13 13 13 13 14 13 13 13 12 11 10 9 7 7 7 6 6 6 5 5 5 5 4 4 3 3 2 2 2 2 2 1 0
13 13 13 14 14 14 14 14 13 13 13 13 14 13 14 14 13 12 11 10 9 7 7 8 6 6 6 5 5 5 4 4 4 3 3 2 2 2 2 1 1 0 -1
14 13 13 14 14 14 14 13 13 13 13 13 13 13 13 12 11 10 10 9 8 7 8 6 6 5 5 5 4 5 4 4 3 3 3 3 2 2 1 1 0 -0 -1
14 13 12 13 13 13 13 13 13 13 13 13 12 11 10 9 8 8 7 8 8 7 6 6 5 5 5 5 5 4 4 4 3 3 3 2 1 1 1 1 0 -1 -1
14 13 12 12 13 13 13 13 13 13 12 11 10 9 8 7 8 8 8 8 7 6 5 5 5 5 5 5 5 4 4 4 3 3 2 2 1 1 1 0 -0 -1 -2
15 14 13 12 13 13 12 12 12 11 10 9 8 7 8 8 8 8 7 6 6 5 5 5 4 4 5 5 5 5 4 4 3 3 2 2 1 0 -0 -0 -1 -1 -2
12 13 14 13 12 11 10 10 10 10 9 9 7 7 8 8 7 6 6 5 5 5 5 4 4 3 4 5 4 4 4 3 3 2 2 1 0 -0 -1 -1 -1 -2 -2
9 9 9 9 10 10 9 8 8 8 8 8 7 8 7 6 6 5 5 5 5 4 3 3 3 4 4 4 4 4 3 3 3 2 2 1 0 -0 -1 -2 -2 -3 -3
7 6 6 6 7 7 7 7 7 7 7 6 6 5 5 5 5 5 5 4 4 3 3 3 4 4 4 4 3 3 3 3 2 2 1 0 -1 -1 -2 -3 -3 -3 -4
4 4 5 5 5 5 6 6 5 5 5 4 5 5 5 5 4 4 4 4 3 3 3 3 3 3 3 3 3 3 3 2 2 1 1 0 -1 -1 -2 -3 -3 -4 -4
4 3 4 4 4 4 4 4 4 5 5 5 4 4 4 4 4 4 4 3 3 3 3 3 3 2 2 3 3 2 2 1 1 1 1 0 -1 -2 -2 -3 -3 -4 -4
3 4 4 3 3 4 5 4 4 4 4 4 5 5 4 3 3 3 3 3 2 2 2 2 2 2 3 2 2 2 2 1 1 1 0 0 -1 -2 -2 -4 -4 -4 -4
3 3 3 4 4 5 5 4 3 3 4 4 4 3 3 3 3 2 2 2 2 2 2 2 2 2 2 2 2 2 2 1 0 0 0 -0 -1 -1 -2 -3 -4 -4 -5
3 3 3 3 4 4 4 3 3 3 3 3 3 2 2 2 2 1 1 1 1 1 0 0 -0 1 1 1 1 1 1 0 -0 -0 -0 -1 -1 -2 -2 -3 -4 -5 -5
3 3 3 2 1 2 2 2 2 2 2 2 1 1 0 0 0 0 -0 -1 -1 -1 -2 -2 -2 -2 -2 -1 -0 -0 0 0 -0 -1 -1 -1 -1 -2 -2 -3 -4 -5 -5
3 2 1 1 -1 -0 -0 -0 0 1 0 -0 -1 -1 -1 -1 -1 -1 -2 -2 -2 -3 -3 -3 -3 -3 -3 -3 -2 -2 -3 -2 -2 -2 -2 -3 -4 -4 -4 -5 -5 -5 -5
1 1 -0 -1 -2 -2 -2 -2 -2 -1 -2 -2 -3 -4 -4 -4 -5 -5 -5 -5 -4 -4 -4 -4 -4 -4 -4 -3 -3 -3 -3 -2 -3 -3 -4 -4 -5 -5 -5 -5 -5 -5 -5

GFSMW_925_temp_057.txt.gz
Temp
19 17 16 16 16 15 15 15 15 15 15 15 14 14 14 14 14 15 14 14 14 14 14 14 13 13 13 12 12 11 10 9 9 9 9 8 7 6 7 6 6 6 6
19 17 16 16 16 16 15 15 16 16 15 15 15 14 14 14 14 14 14 14 14 14 14 14 13 13 12 12 11 10 9 8 8 9 8 11 9 7 7 6 6 6 6
19 18 17 16 16 15 15 15 15 16 15 14 15 15 14 14 13 13 13 13 13 13 13 13 13 12 12 11 11 10 9 9 7 7 8 10 10 8 7 6 6 5 5
19 19 18 17 16 16 15 16 16 15 15 15 15 14 14 13 12 11 12 12 12 13 13 13 12 12 11 11 10 10 9 8 8 6 6 6 7 9 9 7 5 4 5
20 19 19 18 17 16 15 15 15 15 15 15 14 14 13 13 13 12 13 12 12 12 12 12 11 11 11 10 9 9 8 7 7 6 6 5 6 5 6 8 7 5 5
20 20 19 18 18 15 15 15 14 14 14 13 13 13 12 12 12 12 12 12 11 11 11 11 11 11 10 9 8 7 7 7 6 6 6 5 6 7 6 6 6 5 5
20 20 19 18 18 16 15 15 15 14 13 13 12 14 14 12 12 13 13 11 9 10 11 11 11 10 9 8 7 6 5 5 6 5 5 4 4 4 4 4 5 5 4
20 20 20 19 18 16 15 15 15 15 13 12 12 15 15 12 12 13 13 12 11 10 11 10 9 9 8 7 6 5 5 5 5 5 5 4 4 3 3 3 4 4 4
20 20 20 19 18 16 16 15 15 14 13 12 12 14 14 12 12 13 12 11 10 9 10 10 8 7 7 7 6 5 5 6 5 5 4 3 3 2 2 2 3 3 4
17 18 19 18 17 16 16 14 14 14 14 13 12 12 13 12 12 12 11 10 9 9 10 8 7 7 7 6 5 5 5 5 4 4 4 3 3 2 2 2 2 2 2
18 17 18 17 17 15 15 14 14 14 14 13 12 12 12 11 12 12 11 11 10 10 7 7 6 6 6 5 5 5 5 4 4 4 4 3 2 2 2 1 1 1 1
19 18 17 16 16 15 15 15 14 14 14 12 12 12 12 12 11 11 11 10 9 6 7 7 6 6 4 4 4 4 4 3 3 4 3 2 2 2 1 1 1 1 1
19 18 17 17 16 15 15 14 13 13 13 12 12 12 11 10 9 8 8 7 6 6 6 6 5 4 4 4 4 4 4 4 4 3 3 2 2 2 2 1 1 1 0
18 18 17 16 15 14 13 13 12 12 12 11 11 10 8 7 7 7 7 7 5 6 5 5 4 4 4 4 4 5 5 4 3 3 2 2 2 2 2 1 1 0 -0
16 16 16 16 15 14 12 11 10 11 10 10 8 7 7 7 6 5 5 6 6 6 5 4 4 4 4 3 3 4 4 3 3 3 3 2 2 2 1 0 0 -0 -1
13 13 14 14 13 12 11 9 9 8 8 8 7 6 6 5 5 6 6 5 5 4 4 4 4 4 3 3 3 3 3 3 3 3 2 2 2 2 1 0 -0 -1 -1
11 11 10 10 10 9 8 8 7 7 7 7 6 5 6 6 5 5 4 4 3 3 3 4 3 2 3 3 4 4 3 2 3 2 2 2 2 1 -0 -1 -1 -1 -2
9 8 8 7 7 7 6 6 6 6 5 5 5 5 5 4 4 4 3 3 3 3 3 3 2 3 4 4 3 3 3 2 2 2 2 1 1 0 -0 -1 -2 -2 -2
6 6 6 6 6 6 6 6 6 6 5 4 4 4 4 4 4 4 4 4 4 3 3 3 3 3 3 3 3 3 2 2 2 2 2 1 0 0 0 -2 -3 -2 -2
5 5 5 5 5 5 6 6 5 5 4 4 4 4 5 4 4 3 3 3 3 2 2 2 2 2 2 2 2 2 1 0 1 1 1 1 1 0 0 -2 -3 -3 -3
5 4 5 5 5 5 5 5 5 4 4 4 4 4 4 3 3 3 2 2 1 1 1 1 1 2 2 2 2 2 1 0 0 0 0 -0 1 1 -0 -1 -3 -3 -3
5 5 4 4 4 4 5 4 4 3 3 4 3 2 2 2 2 1 1 0 0 -0 -0 -0 -0 -0 -0 0 1 0 0 -0 -1 -1 -0 -1 0 0 -0 -1 -2 -2 -3
4 4 4 3 3 3 3 3 2 2 2 2 1 1 1 0 0 -0 -0 -0 -1 -1 -1 -1 -2 -1 -2 -2 -2 -2 -2 -2 -2 -2 -2 -1 -0 -0 -1 -1 -2 -3 -4
4 3 3 2 1 0 -0 -0 1 1 1 -0 -1 -1 -1 -1 -2 -2 -2 -2 -2 -3 -3 -3 -3 -3 -3 -3 -3 -3 -3 -3 -3 -3 -3 -3 -3 -3 -3 -3 -3 -3 -4
3 2 2 1 -1 -1 -2 -1 -1 -1 -1 -2 -2 -3 -3 -3 -3 -3 -4 -4 -4 -5 -5 -4 -5 -5 -5 -5 -6 -6 -5 -5 -4 -4 -4 -3 -3 -3 -4 -4 -4 -4 -4
2 1 -1 -2 -3 -4 -4 -3 -3 -3 -2 -3 -4 -5 -5 -5 -5 -5 -5 -6 -7 -7 -7 -6 -7 -7 -7 -8 -7 -7 -6 -5 -5 -4 -3 -3 -3 -3 -3 -4 -4 -4 -5

GFSMW_925_temp_063.txt.gz
Temp
25 23 22 21 21 20 19 19 19 18 18 19 18 19 19 18 18 19 19 17 16 15 14 16 15 13 15 15 15 14 15 15 14 15 15 15 13 12 13 13 12 12 11
25 24 22 21 21 20 20 20 19 19 19 19 19 20 20 19 19 19 19 16 15 14 14 15 15 14 15 15 14 14 14 15 14 15 15 16 15 13 12 12 12 12 11
26 25 23 22 21 21 20 21 21 20 20 20 20 20 20 20 19 19 19 16 15 15 14 14 15 14 14 14 13 13 14 15 13 13 14 15 13 13 14 13 12 11 11
27 26 24 23 22 22 21 21 21 21 21 20 21 20 20 20 20 19 19 16 15 14 14 14 14 13 13 14 13 13 14 14 14 12 10 10 10 12 13 14 13 11 10
28 27 26 24 23 22 22 21 21 21 21 20 20 20 20 20 20 19 19 15 15 14 14 14 13 12 12 13 13 13 13 13 14 10 9 9 9 11 11 12 13 13 12
29 28 27 26 24 23 22 21 21 21 21 21 20 20 20 19 20 20 18 16 15 14 13 13 11 12 12 12 13 13 12 11 9 9 8 8 9 11 10 12 12 12 12
29 28 28 27 26 24 23 22 21 21 21 21 20 19 19 19 19 19 17 16 15 14 13 12 11 11 11 11 11 12 10 8 9 7 7 7 9 8 9 10 10 11 10
29 29 28 28 27 25 24 23 22 21 21 20 20 20 19 19 18 18 15 15 15 14 14 13 11 10 10 10 11 9 8 7 7 6 6 7 7 7 9 9 9 9 9
29 29 29 28 27 26 25 23 23 22 22 21 20 19 19 18 18 16 15 14 14 14 13 11 10 9 9 10 9 8 6 6 6 5 5 5 6 8 8 8 8 8 8
28 29 29 28 27 27 26 24 23 22 22 22 20 18 17 16 16 15 14 13 12 13 11 10 9 8 8 9 7 5 5 5 4 4 5 4 7 8 8 8 7 7 7
28 27 28 28 28 27 26 24 23 22 22 22 20 18 16 14 14 14 13 12 12 11 9 9 8 7 8 6 4 5 5 4 4 4 4 6 7 7 7 7 7 7 7
28 28 27 26 26 26 26 25 23 22 22 22 21 16 14 13 13 13 12 12 11 10 9 9 7 7 6 5 4 4 4 4 3 3 5 7 7 7 7 7 6 6 6
29 28 27 26 25 24 24 23 22 22 22 21 20 15 13 13 12 12 11 10 9 8 8 7 5 5 4 5 5 5 5 4 4 5 7 7 7 7 7 6 7 7 7
28 28 27 26 25 24 23 22 20 18 16 14 12 12 11 11 10 9 8 8 7 6 5 5 5 5 5 5 5 5 4 4 4 6 6 7 7 7 7 7 6 6 6
26 27 27 26 24 22 18 14 12 11 11 10 9 8 8 8 7 6 6 5 5 5 5 5 5 4 5 4 4 4 3 4 4 5 6 6 6 6 6 6 5 5 6
24 24 25 25 23 20 16 12 10 9 9 8 7 7 6 6 5 5 5 5 4 4 4 4 5 5 4 4 4 3 2 3 4 6 7 7 7 6 6 5 5 4 3
22 22 22 21 19 18 15 13 11 10 9 8 8 8 8 7 7 6 5 5 4 5 5 5 4 4 3 3 3 3 3 4 5 5 6 6 7 6 6 6 5 4 3
20 19 19 18 17 16 15 14 13 12 11 11 10 9 9 8 7 7 7 5 4 4 4 4 3 4 4 4 4 3 3 4 4 5 5 5 6 6 6 5 5 4 3
19 18 17 16 15 15 14 13 13 12 11 10 9 9 8 7 7 6 5 5 4 4 4 5 6 6 6 4 3 2 3 3 3 4 4 4 4 4 4 4 3 3 3
17 16 16 15 15 14 13 12 12 12 11 10 9 8 8 7 6 5 5 5 6 7 6 6 5 5 4 3 2 1 1 1 1 1 1 1 1 1 1 1 1 2 2
16 15 15 15 14 13 13 12 12 11 9 9 8 7 6 6 7 7 7 6 6 6 5 4 4 3 3 2 0 -1 -1 -1 -2 -2 -1 -1 -0 -0 -1 -1 -2 -2 -1
14 14 14 13 13 12 12 11 10 9 8 8 7 7 7 7 6 6 6 6 6 5 4 3 3 2 2 1 -1 -2 -3 -4 -4 -3 -3 -3 -3 -3 -3 -2 -2 -2 -2
14 14 13 12 12 12 11 11 9 8 7 7 6 6 6 6 5 5 5 5 4 3 3 2 2 2 0 -0 -1 -3 -5 -5 -5 -5 -5 -5 -5 -4 -3 -2 -2 -2 -3
14 13 12 12 11 10 10 9 8 7 7 6 6 5 5 5 4 4 4 3 2 1 1 1 0 -1 -2 -2 -4 -6 -6 -6 -6 -6 -6 -5 -4 -3 -3 -2 -2 -2 -3
13 12 11 10 9 8 7 7 6 6 6 5 4 4 3 3 3 2 1 -0 -3 -4 -3 -2 -3 -4 -4 -5 -8 -8 -7 -8 -8 -7 -6 -4 -3 -3 -3 -2 -1 -1 -2
11 10 9 8 7 6 5 5 5 5 4 4 3 1 1 1 2 2 -1 -3 -3 -4 -5 -6 -6 -7 -8 -9 -9 -9 -8 -9 -7 -7 -5 -5 -5 -5 -5 -4 -4 -1 -1